Tracking 29892 objects as of 21-Nov-2024
HD Live streaming from Space Station
objects crossing your sky now

STARLINK-2051

Track STARLINK-2051 now!
10-day predictions
STARLINK-2051 is classified as:


NORAD ID: 47661
Int'l Code: 2021-012AT
Perigee: 517.0 km
Apogee: 519.2 km
Inclination: 53.1 °
Period: 94.8 minutes
Semi major axis: 6889 km
RCS: Unknown
Launch date: February 16, 2021
Source: United States (US)
Launch site: AIR FORCE EASTERN TEST RANGE (AFETR)
Your satellite tracking list
Your tracking list is empty




NASA's NSSDC Master Catalog

Two Line Element Set (TLE):
1 47661U 21012AT  24326.16667824  .00507685  00000-0  23047-1 0  9995
2 47661  53.0549  16.8032 0001594  79.8644 332.2699 15.18300071208380
Source of the keplerian elements: AFSPC